[[[{"header":{"parameterUnit":"kt","parameterCategory":2,"dx":1,"dy":1,"la1":30.253999710083008,"la2":30.299108505249023,"lo1":-89.0895004272461,"lo2":-89.04439544677734,"nx":28,"ny":28,"refTime":"2022-09-20T21:00:00:Z","depth":0,"parameterNumber":1,"parameterNumberName":"U-component_of_WINDS"},"data":[1.5837,1.5895,1.5914,1.5988,1.6018,1.6071,1.6096,1.613,1.6162,1.6226,1.6266,1.6291,1.6329,1.638,1.6423,1.6432,1.6448,1.6454,1.6464,1.6423,1.6418,1.6414,1.6401,1.6458,1.6458,1.6504,1.6504,1.6504,1.5802,1.5832,1.5878,1.5935,1.5974,1.598,1.6025,1.6056,1.6103,1.6143,1.6184,1.6242,1.629,1.6327,1.6375,1.64,1.6405,1.6412,1.6409,1.6415,1.6372,1.6358,1.6407,1.6407,1.6407,1.6407,1.6407,1.6407,1.5743,1.5777,1.5824,1.5874,1.5908,1.5946,1.5981,1.6011,1.6055,1.611,1.6124,1.6177,1.622,1.6288,1.6315,1.6356,1.6351,1.6364,1.6367,1.637,1.6369,1.6297,1.6365,1.6365,1.6365,1.6365,1.6365,0,1.5706,1.572,1.5766,1.5817,1.5855,1.5896,1.5937,1.5959,1.5995,1.603,1.6081,1.6114,1.6178,1.6227,1.6277,1.6303,1.6311,1.6315,1.6323,1.6316,1.6302,1.6308,1.6235,1.6312,1.6312,1.6311,1.6311,1.6311,1.5646,1.5685,1.5744,1.5773,1.5801,1.5848,1.5879,1.5909,1.594,1.5994,1.6022,1.6073,1.6115,1.6193,1.6226,1.6273,1.6277,1.6304,1.6284,1.6276,1.6275,1.6272,1.6275,1.6307,1.6308,1.6308,1.6308,0,1.561,1.5644,1.571,1.5764,1.5779,1.5817,1.5863,1.5898,1.5924,1.5975,1.5989,1.6029,1.6078,1.6108,1.617,1.6184,1.6243,1.6247,1.6228,1.6229,1.6255,1.6251,1.6338,1.635,1.6293,1.6294,1.6294,0,1.5572,1.5621,1.5667,1.5704,1.5759,1.5788,1.5842,1.587,1.5908,1.5949,1.5965,1.6002,1.6035,1.6076,1.6097,1.6151,1.6163,1.6176,1.618,1.6173,1.6172,1.6189,1.6185,1.6192,1.6191,1.6191,1.619,0,1.551,1.5595,1.5655,1.5679,1.5742,1.5769,1.5797,1.5841,1.5872,1.5916,1.5936,1.5986,1.6012,1.6049,1.6075,1.606,1.6143,1.6127,1.6155,1.6155,1.6171,1.6169,1.624,1.619,1.619,1.619,1.6189,0,1.5484,1.5531,1.5614,1.5666,1.5687,1.5727,1.5778,1.5819,1.5865,1.5881,1.5916,1.5929,1.5981,1.5963,1.6034,1.6007,1.6032,1.6049,1.6052,1.6057,1.6036,1.6069,1.6135,1.6142,1.6063,1.6062,1.6061,0,1.5403,1.5497,1.5523,1.5601,1.5649,1.5663,1.5707,1.5748,1.5773,1.5815,1.5843,1.5891,1.5884,1.5903,1.5935,1.5964,1.5999,1.596,1.6017,1.6019,1.6003,1.6065,1.6066,1.6118,1.6048,1.6049,1.605,0,1.5345,1.5424,1.5436,1.5465,1.5525,1.5565,1.5616,1.5671,1.5698,1.5743,1.5785,1.5854,1.5851,1.5883,1.59,1.5931,1.5976,1.5923,1.5925,1.593,1.6045,1.6045,1.6054,1.598,1.5981,1.5983,1.604,0,1.5293,1.5346,1.5381,1.5445,1.5482,1.5533,1.5567,1.56,1.5613,1.5639,1.5702,1.5744,1.5799,1.5818,1.5831,1.5893,1.5887,1.5884,1.5867,1.5908,1.5928,1.5936,1.5836,1.5835,1.5835,1.5835,0,0,1.5206,1.5283,1.5311,1.5363,1.5395,1.541,1.5462,1.5495,1.556,1.5581,1.5573,1.5677,1.5711,1.5784,1.58,1.5823,1.5836,1.5821,1.5889,1.5895,1.59,1.5921,1.5929,1.5835,1.5834,1.5834,1.5834,0,1.5195,1.5233,1.5285,1.5321,1.5375,1.54,1.5413,1.5468,1.5487,1.5552,1.5562,1.5604,1.5687,1.5721,1.5749,1.5814,1.5818,1.5828,1.5851,1.5886,1.5892,1.5897,1.5918,1.5926,1.5834,1.5834,1.5834,0,1.5142,1.5184,1.5214,1.529,1.5325,1.5374,1.5366,1.5419,1.5454,1.5467,1.5531,1.5558,1.5607,1.5674,1.5705,1.5698,1.5799,1.5774,1.5776,1.578,1.5815,1.5823,1.5829,1.5742,1.5741,1.5741,0,0,1.5127,1.5177,1.5231,1.529,1.5311,1.5351,1.538,1.5397,1.5442,1.546,1.5495,1.5538,1.5586,1.5617,1.5665,1.5733,1.5745,1.5761,1.5766,1.5769,1.5774,1.5811,1.5818,1.5739,1.5739,1.5739,0,0,1.5119,1.5185,1.5191,1.5264,1.5307,1.5364,1.5397,1.5405,1.5452,1.5449,1.5478,1.549,1.5553,1.558,1.5553,1.5659,1.5642,1.565,1.5639,1.5645,1.5649,1.5641,1.555,0,0,0,0,0,1.5125,1.5177,1.5181,1.5199,1.5295,1.5361,1.5374,1.5399,1.5387,1.5413,1.5444,1.5447,1.5571,1.5548,1.5564,1.5593,1.5717,1.5721,1.5724,1.5727,1.5733,1.5738,0,0,0,0,0,0,1.5132,1.5153,1.518,1.5239,1.5261,1.536,1.5344,1.5352,1.5385,1.5384,1.5441,1.5449,1.5471,1.5541,1.5555,1.5583,1.5545,1.5718,1.5722,1.5725,1.5729,1.5734,1.5738,0,0,0,0,0,1.5138,1.5155,1.5303,1.5238,1.5257,1.5304,1.5342,1.5349,1.5374,1.5423,1.5431,1.5391,1.5471,1.5485,1.555,1.5576,1.5535,1.554,1.572,1.5723,1.5725,1.5731,0,0,0,0,0,0,1.5142,1.5161,1.5307,1.5314,1.5221,1.5299,1.5312,1.5346,1.5411,1.542,1.5374,1.5373,1.5472,1.5483,1.5493,1.5572,1.5527,1.5533,1.5536,1.5722,1.5725,1.5726,0,0,0,0,0,0,1.5152,1.5167,1.5311,1.5288,1.5292,1.5294,1.5305,1.5364,1.5412,1.5358,1.536,1.5372,1.5456,1.5481,1.5489,1.558,1.5522,1.5527,1.553,1.5532,1.5724,1.5726,0,0,0,0,0,0,1.5159,1.5171,1.5286,1.5289,1.5293,1.5369,1.5346,1.5443,1.5393,1.5355,1.539,1.5388,1.5455,1.5463,1.5487,1.5574,1.5579,1.5522,1.5525,1.5528,1.5529,0,0,0,0,0,0,0,1.5164,1.5074,1.5268,1.5291,1.5294,1.5376,1.5377,1.5379,1.5393,1.5391,1.539,1.5389,1.5493,1.5498,1.5504,1.5569,0,0,1.5521,1.5524,0,0,0,0,0,0,0,0,1.5069,1.5073,1.5268,1.527,1.5271,1.5376,1.5377,1.5379,1.5393,1.5391,1.539,1.5389,1.5494,1.5499,1.5503,0,0,0,0,0,0,0,0,0,0,0,0,0,0,0,1.5268,1.527,0,1.5376,1.5377,1.5378,1.5393,1.5392,1.5391,1.539,1.5496,1.5499,1.5503,0,0,0,0,0,0,0,0,0,0,0,0,0,0,0,0,0,0,0,0,0,0,0,0,0,0,0,0,0,0,0,0,0,0,0,0,0,0,0,0,0,0,0,0,0,0,0,0,0,0,0,0,0,0,0,0,0,0,0,0,0,0,0,0,0,0,0,0,0]}],[{"header":{"parameterUnit":"kt","parameterCategory":2,"dx":1,"dy":1,"la1":30.253999710083008,"la2":30.299108505249023,"lo1":-89.0895004272461,"lo2":-89.04439544677734,"nx":28,"ny":28,"refTime":"2022-09-20T21:00:00:Z","depth":0,"parameterNumber":2,"parameterNumberName":"V-component_of_WINDS"},"data":[3.4692,3.4713,3.4687,3.4698,3.4678,3.468,3.4673,3.4661,3.4644,3.4643,3.4638,3.4614,3.4587,3.4574,3.4566,3.4555,3.4553,3.4577,3.456,3.4474,3.446,3.4447,3.444,3.4578,3.4578,3.4653,3.4654,3.4654,3.4627,3.4607,3.4606,3.4588,3.4587,3.4547,3.4529,3.453,3.4534,3.4514,3.4508,3.4505,3.4499,3.4463,3.4453,3.446,3.444,3.4458,3.4457,3.4453,3.4359,3.4353,3.4474,3.4474,3.4474,3.4474,3.4474,3.4474,3.4502,3.4515,3.449,3.4489,3.4473,3.4461,3.4469,3.444,3.4438,3.4426,3.4396,3.4399,3.4374,3.435,3.4335,3.4336,3.431,3.4322,3.4325,3.4328,3.4335,3.4226,3.4333,3.4333,3.4332,3.4332,3.4331,0,3.4402,3.438,3.4378,3.4368,3.4366,3.4356,3.4343,3.4347,3.4292,3.4293,3.4292,3.4287,3.4276,3.4272,3.4257,3.4239,3.4197,3.4191,3.4199,3.4212,3.4225,3.4216,3.4063,3.4188,3.4187,3.4186,3.4185,3.4184,3.4272,3.4292,3.4254,3.4255,3.4242,3.4246,3.4243,3.4193,3.4192,3.4168,3.4182,3.4177,3.4171,3.4173,3.4138,3.413,3.411,3.4159,3.4108,3.412,3.4108,3.4106,3.4107,3.417,3.4172,3.4173,3.4175,0,3.42,3.416,3.4183,3.4143,3.4134,3.4157,3.4122,3.4134,3.4105,3.4116,3.4116,3.407,3.407,3.4026,3.4018,3.3995,3.4029,3.401,3.4036,3.4029,3.4068,3.4064,3.4205,3.422,3.4078,3.408,3.4081,0,3.4073,3.4101,3.4039,3.4054,3.4083,3.4033,3.4063,3.404,3.4019,3.4028,3.3975,3.3984,3.3927,3.393,3.3897,3.3917,3.3916,3.3899,3.3889,3.3903,3.3905,3.39,3.3893,3.387,3.3869,3.3869,3.3868,0,3.3964,3.3965,3.399,3.3984,3.3945,3.3958,3.3942,3.3918,3.3916,3.3907,3.3904,3.3897,3.3892,3.3887,3.3844,3.3811,3.3869,3.3814,3.3851,3.3852,3.3865,3.3865,3.4001,3.3867,3.3867,3.3867,3.3867,0,3.3855,3.3847,3.3891,3.3856,3.3858,3.3876,3.3865,3.3869,3.3848,3.3828,3.3821,3.378,3.3796,3.3744,3.3764,3.3732,3.373,3.3716,3.3718,3.3716,3.3659,3.3739,3.3875,3.3887,3.3714,3.3713,3.3712,0,3.374,3.3774,3.3731,3.3774,3.3783,3.3721,3.3739,3.3723,3.3698,3.3701,3.3673,3.3678,3.3631,3.3626,3.3642,3.3613,3.3655,3.3607,3.3609,3.361,3.3615,3.374,3.377,3.3851,3.3695,3.3697,3.3698,0,3.3646,3.36,3.3611,3.3601,3.3572,3.3581,3.3602,3.3595,3.36,3.3589,3.3603,3.3611,3.3574,3.3568,3.3534,3.3553,3.3625,3.3512,3.351,3.3532,3.3684,3.3712,3.3726,3.3598,3.36,3.3602,3.3685,0,3.3486,3.3499,3.3527,3.3509,3.3509,3.3535,3.349,3.3495,3.3462,3.3436,3.3458,3.3435,3.3429,3.3434,3.3403,3.3461,3.3444,3.3406,3.3352,3.3435,3.3461,3.3472,3.3316,3.3314,3.3313,3.3312,0,0,3.3386,3.3403,3.3356,3.3375,3.3372,3.3308,3.3339,3.3329,3.331,3.3309,3.3278,3.3285,3.3268,3.33,3.3322,3.3321,3.3326,3.33,3.3396,3.3406,3.3415,3.3444,3.3456,3.3309,3.3308,3.3308,3.3307,0,3.3317,3.3303,3.3335,3.3321,3.3301,3.3271,3.3279,3.3248,3.3232,3.3255,3.3202,3.3211,3.3219,3.3206,3.3201,3.3295,3.3254,3.3297,3.3361,3.3382,3.3394,3.3404,3.3435,3.3447,3.3303,3.3304,3.3304,0,3.3216,3.3193,3.3204,3.3195,3.3182,3.3194,3.3126,3.3143,3.3151,3.3081,3.3105,3.3086,3.3066,3.3104,3.3119,3.3092,3.319,3.3152,3.3161,3.3161,3.318,3.3194,3.3207,3.304,3.3039,3.3038,0,0,3.3163,3.3175,3.3135,3.3178,3.3173,3.313,3.3132,3.31,3.3084,3.3078,3.3053,3.3039,3.3043,3.3047,3.3048,3.3096,3.3087,3.3122,3.3134,3.3145,3.3151,3.3172,3.3186,3.3035,3.3035,3.3035,0,0,3.3138,3.3093,3.3063,3.3107,3.3094,3.3057,3.3084,3.3046,3.3044,3.3036,3.2982,3.2976,3.301,3.2995,3.2962,3.3028,3.2975,3.2982,3.3037,3.3052,3.3064,3.3067,3.2889,0,0,0,0,0,3.3045,3.3098,3.3072,3.3072,3.3062,3.3072,3.307,3.3027,3.299,3.3012,3.2985,3.2942,3.2965,3.2936,3.2937,3.2973,3.2999,3.3006,3.3012,3.3094,3.311,3.3124,0,0,0,0,0,0,3.3045,3.3046,3.307,3.3037,3.3034,3.307,3.2997,3.2987,3.2986,3.2978,3.2948,3.2941,3.2904,3.2932,3.2934,3.2969,3.2888,3.3002,3.3007,3.3012,3.3099,3.3113,3.3124,0,0,0,0,0,3.3045,3.3046,3.3041,3.3035,3.3033,3.2988,3.2995,3.2985,3.2985,3.2943,3.2934,3.2952,3.2906,3.2905,3.2933,3.2969,3.2887,3.2887,3.3005,3.301,3.3013,3.3106,0,0,0,0,0,0,3.3045,3.3037,3.304,3.3037,3.3012,3.2985,3.298,3.2985,3.2949,3.2941,3.2944,3.2938,3.2909,3.2907,3.2906,3.2972,3.2885,3.2886,3.2887,3.3009,3.3012,3.3015,0,0,0,0,0,0,3.3036,3.3036,3.3038,3.3012,3.3006,3.2983,3.2978,3.2996,3.2949,3.2952,3.2945,3.2942,3.291,3.2909,3.2908,3.2938,3.2884,3.2885,3.2886,3.2886,3.3011,3.3014,0,0,0,0,0,0,3.3035,3.3035,3.3012,3.3008,3.3002,3.2972,3.2998,3.299,3.2927,3.2954,3.292,3.2917,3.2913,3.2911,3.291,3.294,3.2938,3.2884,3.2885,3.2885,3.2886,0,0,0,0,0,0,0,3.3034,3.3049,3.3054,3.3004,3.2999,3.3015,3.3015,3.3014,3.2926,3.2924,3.2921,3.2918,3.288,3.288,3.2881,3.2942,0,0,3.2884,3.2885,0,0,0,0,0,0,0,0,3.3048,3.3049,3.3054,3.3053,3.3053,3.3015,3.3015,3.3014,3.2926,3.2924,3.2922,3.2919,3.288,3.2881,3.2881,0,0,0,0,0,0,0,0,0,0,0,0,0,0,0,3.3054,3.3053,0,3.3015,3.3015,3.3014,3.2926,3.2924,3.2922,3.292,3.288,3.2881,3.2881,0,0,0,0,0,0,0,0,0,0,0,0,0,0,0,0,0,0,0,0,0,0,0,0,0,0,0,0,0,0,0,0,0,0,0,0,0,0,0,0,0,0,0,0,0,0,0,0,0,0,0,0,0,0,0,0,0,0,0,0,0,0,0,0,0,0,0,0,0]}]]]